{"data":{"norad_id":87782,"epoch":"2026-05-23T22:55:57.435168Z","epoch_age_seconds":178992,"freshness":"STALE","line1":"1 87782U          26143.95552587  .00002270  00000+0  75499-2 0  9990","line2":"2 87782 102.3941  42.4725 0036832 276.3057  83.3845 13.01362827589084","mean_motion":13.01362827,"eccentricity":0.0036832,"inclination_deg":102.3941,"raan_deg":42.4725,"arg_perigee_deg":276.3057,"mean_anomaly_deg":83.3845,"bstar":0.0075499,"rev_number":58908,"period_min":110.65322983903,"perigee_km":1228.6343731344,"apogee_km":1284.8760430962,"semimajor_km":7634.8922081153,"source":"CELESTRAK","updated_at":"2026-05-25T13:38:11.679375Z"}}